Location: Peebles
(55.6412°N, 3.1714°W)
Time: 16:23:23
(UTC+01:00)

Cosmos 1934 Rocket - Pass Details

Date: 28 January 2022
Orbit: 938 x 999 km, 83.0° (Epoch: 25 May)

Event Time Altitude Azimuth Distance (km) Brightness Sun altitude
Rises 18:13:33 0° 348° (NNW) 3,652 7.0 -13.1°
Reaches altitude 10° 18:16:04 10° 347° (NNW) 2,694 6.3 -13.5°
Maximum altitude 18:22:13 82° 262° (W) 962 4.0 -14.3°
Drops below altitude 10° 18:28:16 10° 175° (S) 2,650 6.3 -15.2°
Sets 18:30:44 0° 175° (S) 3,589 7.0 -15.5°
